Weather History for Jamestown, ND

Change the Weather History Date:

Sunday, March 9, 2014

  Actual Average Record
Temperature  
Mean Temperature 41 °F 24 °F  
Max Temperature 48 °F 33 °F 56 °F (1967)
Min Temperature 34 °F 15 °F -21 °F (1951)
Degree Days  
Heating Degree Days 24 41  
Month to date heating degree days 468 384  
Since 1 July heating degree days 7736 7143  
Cooling Degree Days 0 0  
Month to date cooling degree days 0 0  
Year to date cooling degree days 0 0  
Moisture  
Dew Point 33 °F    
Average Humidity 71    
Maximum Humidity 82    
Minimum Humidity 60    
Precipitation  
Precipitation 0.00 in 0.03 in 0.62 in (2010)
Month to date precipitation T 0.21  
Year to date precipitation 0.39 1.06  
Sea Level Pressure  
Sea Level Pressure 29.68 in    
Wind  
Wind Speed 13 mph (WSW)    
Max Wind Speed 24 mph    
Max Gust Speed 29 mph    
Visibility 10 miles    
Events      
T = Trace of Precipitation, MM = Missing Value Source: NWS Daily Summary

Daily Weather History Graph

Daily Weather History Graph

Search for Another Location

Airport:

Trip Planner

Search our weather history database for the weather conditions in past years. The results will help you decide how hot, cold, wet, or windy it might be!

Date:

Astronomy

Mar. 09, 2014 Rise Set
Actual Time 7:59 AM CDT 7:31 PM CDT
Civil Twilight 7:28 AM CDT 8:02 PM CDT
Nautical Twilight 6:53 AM CDT 8:37 PM CDT
Astronomical Twilight 6:18 AM CDT 9:13 PM CDT
Moon 1:09 PM CDT (3/9) 3:42 AM CDT (3/9)
Length of Visible Light 12h 33m
Length of Day
11h 32m
First Quarter, 61% of the Moon is Illuminated
Mar 9
First Quarter
Mar 16
Full
Mar 23
Last Quarter
Mar 30
New
Apr 7
First Quarter

Hourly Weather History & Observations

Time (CDT) Temp. Windchill Dew Point Humidity Pressure Visibility Wind Dir Wind Speed Gust Speed Precip Events Conditions
12:56 AM 37.0 °F 28.5 °F 30.9 °F 79% 29.84 in 10.0 mi SSW 13.8 mph - N/A   Clear
1:56 AM 37.0 °F 28.1 °F 30.9 °F 79% 29.82 in 10.0 mi SSW 15.0 mph - N/A   Clear
3:56 AM 36.0 °F 28.0 °F 30.0 °F 79% 29.78 in 10.0 mi South 11.5 mph - N/A   Clear
4:56 AM 39.0 °F 31.0 °F 30.9 °F 73% 29.74 in 10.0 mi SW 13.8 mph - N/A   Clear
5:56 AM 39.0 °F 31.4 °F 30.9 °F 73% 29.72 in 10.0 mi WSW 12.7 mph - N/A   Clear
6:56 AM 39.0 °F 31.0 °F 30.9 °F 73% 29.71 in 10.0 mi WSW 13.8 mph - N/A   Clear
7:56 AM 37.9 °F 28.9 °F 30.0 °F 73% 29.70 in 10.0 mi WSW 16.1 mph - N/A   Clear
8:56 AM 39.0 °F 30.3 °F 30.9 °F 73% 29.68 in 10.0 mi West 16.1 mph - N/A   Clear
9:56 AM 41.0 °F 32.2 °F 30.9 °F 67% 29.68 in 10.0 mi West 18.4 mph - N/A   Clear
10:56 AM 43.0 °F 34.8 °F 32.0 °F 65% 29.67 in 10.0 mi West 18.4 mph - N/A   Clear
11:56 AM 44.1 °F 35.9 °F 32.0 °F 63% 29.67 in 10.0 mi West 19.6 mph - N/A   Clear
12:56 PM 46.0 °F 39.6 °F 33.1 °F 61% 29.67 in 10.0 mi West 15.0 mph - N/A   Clear
1:56 PM 46.0 °F 39.0 °F 33.1 °F 61% 29.67 in 10.0 mi West 17.3 mph - N/A   Clear
2:56 PM 46.9 °F - 34.0 °F 61% 29.65 in 10.0 mi West 15.0 mph - N/A   Partly Cloudy
3:56 PM 46.0 °F 41.9 °F 35.1 °F 66% 29.65 in 10.0 mi West 8.1 mph - N/A   Overcast
4:56 PM 46.9 °F - 35.1 °F 63% 29.64 in 10.0 mi West 6.9 mph - N/A   Mostly Cloudy
5:56 PM 46.0 °F 43.1 °F 35.1 °F 66% 29.62 in 10.0 mi WSW 5.8 mph - N/A   Clear
6:56 PM 45.0 °F 39.7 °F 35.1 °F 68% 29.63 in 10.0 mi WSW 10.4 mph - N/A   Clear
7:56 PM 44.1 °F 38.1 °F 34.0 °F 68% 29.63 in 10.0 mi WSW 11.5 mph - N/A   Partly Cloudy
8:56 PM 43.0 °F 37.2 °F 34.0 °F 71% 29.64 in 10.0 mi West 10.4 mph - N/A   Clear
9:56 PM 43.0 °F 36.8 °F 35.1 °F 74% 29.64 in 10.0 mi West 11.5 mph - N/A   Clear
10:56 PM 42.1 °F 35.2 °F 35.1 °F 76% 29.65 in 10.0 mi West 12.7 mph - N/A   Clear
11:56 PM 41.0 °F 34.3 °F 34.0 °F 76% 29.64 in 10.0 mi West 11.5 mph - N/A   Clear
12:56 AM 41.0 °F 34.3 °F 35.1 °F 79% 29.64 in 10.0 mi West 11.5 mph - N/A   Clear